Qianfan Jigui 03-09

operational
NORAD ID: 62246 Int'l Des: 2024-232 Owner: YUANX Country: CN Constellation: qianfan
LEOCIRCULARPOLAR

Qianfan Jigui 03-09について

説明を読み込み中...

リアルタイム位置

3D地球を読み込み中...

次回通過

高度履歴

Altitude vs Time

uPlot chart will show altitude changes over time

軌道要素

1 62246U 24232K 25340.93562822 .00000187 00000-0 27169-3 0 9998
2 62246 89.0037 41.8046 0013990 202.2714 157.7831 13.50977497 98474
Epoch: Dec 6, 2025 • Age: 9 hours

現在のステータス

高度 1082.9 km
速度 7.32 km/s
衛星直下点 75.80°N, 23.63°E
打ち上げ日 Dec 5, 2024
運用期間 1 years
タイプ internet

技術仕様

分類 Payload
質量 267.00 kg
乾燥質量 267.00 kg
総質量 267.00 kg
長さ 0.30 m
直径 3.00 m
スパン 10.00 m
形状 Box+pan
製造者 SECM
バスタイプ Qianfan
フェーズステータス In Orbit
所有者/国 YUANX/CN

大規模コンステレーション

Loading constellations...